User: anonymous   Login
Location: Aiyekoto
(8.4333°N, 4.3667°E)
Time: 05:46:22
(UTC+00:00)
Language:

Explorer 7 - Orbit

View from above orbital plane
View from above orbital plane
View from above satellite
View from above satellite

Ground track
Ground track

The orbit data is extracted from the following two-line orbital elements,

1    22U 59009A   20268.75033994 +.00000204 +00000-0 +38060-4 0  9992
2    22 050.2863 356.1383 0139430 278.0785 080.4363 14.95203190485236
Epoch (UTC): 24 September 2020 18:00:29
Eccentricity: 0.0139430
inclination: 50.2863°
perigee height: 485 km
apogee height: 679 km
right ascension of ascending node: 356.1383°
argument of perigee: 278.0785°
revolutions per day: 14.95203190
mean anomaly at epoch: 80.4363°
orbit number at epoch: 48523

The dashed part of the orbit path shows where the satellite is in the earth's shadow,  

DLR